This is the latest recevied weather packets stored in our database for station/object DG1ROH. If no packets are shown the sender has not sent any weather packets the latest 1 day(s).
| Time | Temp. | Humidity | Pressure | Rain* | Wind** | Luminosity | Snow |
|---|---|---|---|---|---|---|---|
| 1777968218 | 13.33° C | 93% | 1009.3 hPa | 0 mm | 0.45 m/s, 81° | 167 W/m² | - |
| 1777968098 | 13.33° C | 93% | 1009.3 hPa | 0 mm | 0.45 m/s, 67° | 171 W/m² | - |
| 1777967978 | 13.33° C | 93% | 1009.3 hPa | 0 mm | 0.45 m/s, 67° | 171 W/m² | - |
| 1777967858 | 13.33° C | 93% | 1009.2 hPa | 0 mm | 0.45 m/s, 86° | 169 W/m² | - |
| 1777967738 | 13.33° C | 93% | 1009.3 hPa | 0 mm | 0.45 m/s, 86° | 156 W/m² | - |
| 1777967618 | 13.33° C | 93% | 1009.3 hPa | 0 mm | 0.45 m/s, 90° | 151 W/m² | - |
| 1777967494 | 13.33° C | 93% | 1009.3 hPa | 0 mm | 0.45 m/s, 98° | 148 W/m² | - |
| 1777967374 | 13.33° C | 93% | 1009.3 hPa | 0 mm | 0 m/s | 146 W/m² | - |
| 1777967252 | 13.33° C | 93% | 1009.3 hPa | 0 mm | 0 m/s | 142 W/m² | - |
| 1777967132 | 13.33° C | 94% | 1009.3 hPa | 0 mm | 0 m/s | 137 W/m² | - |
| 1777967012 | 13.33° C | 93% | 1009.2 hPa | 0 mm | 0.45 m/s, 139° | 134 W/m² | - |
| 1777966893 | 13.33° C | 93% | 1009.3 hPa | 0 mm | 0.45 m/s, 43° | 130 W/m² | - |
| 1777966770 | 13.33° C | 93% | 1009.2 hPa | 0 mm | 0.45 m/s, 43° | 123 W/m² | - |
| 1777966650 | 13.33° C | 93% | 1009.3 hPa | 0 mm | 0.45 m/s, 43° | 118 W/m² | - |
| 1777966530 | 13.33° C | 93% | 1009.3 hPa | 0 mm | 0.45 m/s, 43° | 114 W/m² | - |
| 1777966409 | 13.33° C | 93% | 1009.2 hPa | 0 mm | 0.45 m/s, 46° | 109 W/m² | - |
| 1777966291 | 13.33° C | 93% | 1009.3 hPa | 0 mm | 0.45 m/s, 40° | 109 W/m² | - |
| 1777966166 | 13.33° C | 93% | 1009.2 hPa | 0 mm | 0.89 m/s, 40° | 113 W/m² | - |
| 1777966045 | 13.33° C | 93% | 1009.2 hPa | 0 mm | 0.89 m/s, 52° | 118 W/m² | - |
| 1777965923 | 13.33° C | 94% | 1009.2 hPa | 0 mm | 0.45 m/s, 5° | 121 W/m² | - |
| 1777965800 | 12.78° C | 93% | 1009.3 hPa | 0 mm | 0.89 m/s, 5° | 121 W/m² | - |
| 1777965681 | 13.33° C | 93% | 1009.2 hPa | 0 mm | 0.89 m/s, 51° | 120 W/m² | - |
| 1777965556 | 13.33° C | 94% | 1009.2 hPa | 0 mm | 0.45 m/s, 66° | 118 W/m² | - |
| 1777965437 | 13.33° C | 94% | 1009.2 hPa | 0 mm | 0.45 m/s, 66° | 116 W/m² | - |
| 1777965315 | 13.33° C | 94% | 1009.2 hPa | 0 mm | 0.45 m/s, 66° | 118 W/m² | - |
* Rain latest hour (hover to see other rain measurements)
** Current wind speed in m/s (hover to see current wind gust speed)